Regional Weather Roundup
Issued by NWS

Home | Current Version | Previous Version | Text Only | Print | Product List | Glossary Off
Versions: 1 2 3 4 5 6 7 8 9 10 11 12 13 14 15 16 17 18 19 20 21 22 23 24 25 26 27 28 29 30 31 32 33 34 35 36 37 38 39 40 41 42 43 44 45 46 47 48 49 50

000
ASUS44 KMEG 201800
RWRTN
TENNESSEE HOURLY STATE WEATHER ROUNDUP
NATIONAL WEATHER SERVICE MEMPHIS TN
1200 PM CST FRI JAN 20 2017

TNZ002-004-019-021-049-052-054-088>092-201900-
WEST TENNESSEE

CITY           SKY/WX    TMP DP  RH WIND       PRES   REMARKS
MEMPHIS INTL   CLOUDY    62  56  80 S15       29.70F
NWS MEMPHIS      N/A     61 N/A N/A MISG        N/A
JACKSON        CLOUDY    60  32  34 S12       29.73F
UNION CITY     CLOUDY    61  61 100 S13       29.68F
PARIS          CLOUDY    57  54  88 CALM      29.72F
$$

TNZ008-025-027-028-033-062-065-066-201900-
NORTH MIDDLE TENNESSEE

CITY           SKY/WX    TMP DP  RH WIND       PRES   REMARKS
NASHVILLE      PTSUNNY   66  53  63 S10       29.78F
CLARKSVILLE    CLOUDY    59  53  80 S10       29.76F
SMYRNA         PTSUNNY   65  54  67 SW9       29.79F
CROSSVILLE     PTSUNNY   60  49  66 VRB7      29.84F
$$

TNZ061-075-076-078-094-096-097-201900-
SOUTH MIDDLE TENNESSEE

CITY           SKY/WX    TMP DP  RH WIND       PRES   REMARKS
TULLAHOMA      CLOUDY    63  54  72 SW12      29.81F
WINCHESTER     PTSUNNY   64  54  68 S7        29.82F
MCMINNVILLE    PTSUNNY   64  54  68 SW9       29.81F
COLUMBIA       CLOUDY    64  64 100 S12       29.76F
SHELBYVILLE    MOSUNNY   66  57  72 S15       29.80F
$$

TNZ017-018-042-046-047-201900-
NORTHEAST TENNESSEE

CITY           SKY/WX    TMP DP  RH WIND       PRES   REMARKS
TRI CITIES     PTSUNNY   62  54  74 SW16      29.83F
$$

TNZ012-013-036-069-073-074-201900-
CENTRAL EAST TENNESSEE

CITY           SKY/WX    TMP DP  RH WIND       PRES   REMARKS
KNOXVILLE      PTSUNNY   66  53  63 W14       29.81F
OAK RIDGE      PTSUNNY   63  57  81 W3        29.83F
GATLINBURG     PTSUNNY   70  52  52 W8        29.81F
$$

TNZ083-085-099-201900-
SOUTHEAST TENNESSEE

CITY           SKY/WX    TMP DP  RH WIND       PRES   REMARKS
CHATTANOOGA    PTSUNNY   66  53  63 SW13      29.83F
$$

SKY/WX REPORTED AS FAIR MEANS FEW OR NO CLOUDS BELOW
12 THOUSAND FEET.





USA.gov is the U.S. government's official web portal to all federal, state and local government web resources and services.